DW7413 Weather Reports


time (UTC)temp
F
wind
direction
speed
knots
gust
knots
rain 1hr
in
rain 24hr
in
rain mn
in
humidity
%
barometer
mb
20260506192705 64 313 0.0 0.9 0.00 0.00 0.00 70 1019.6
20260506191704 63 123 0.0 1.7 0.00 0.00 0.00 73 1019.6
20260506190706 63 132 0.0 0.0 0.00 0.00 0.00 73 1019.6
20260506185705 63 90 0.0 0.9 0.00 0.00 0.00 72 1019.7
20260506184705 63 105 0.0 0.0 0.00 0.00 0.00 72 1019.8
20260506183704 62 69 0.0 0.0 0.00 0.00 0.00 74 1019.8
20260506182704 62 168 0.0 0.0 0.00 0.00 0.00 74 1019.8
20260506181705 62 317 0.0 0.0 0.00 0.00 0.00 74 1019.8
20260506180705 62 159 0.0 0.0 0.00 0.00 0.00 75 1019.8
20260506175706 62 109 0.0 1.7 0.00 0.00 0.00 75 1019.8
20260506174706 62 317 0.0 0.9 0.00 0.00 0.00 78 1019.7
20260506173704 61 321 0.0 1.7 0.00 0.00 0.00 78 1019.8
20260506172705 60 211 0.0 0.0 0.00 0.00 0.00 81 1019.7
20260506171705 59 126 0.0 2.6 0.00 0.00 0.00 81 1019.8
20260506170705 59 173 0.0 0.9 0.00 0.00 0.00 82 1019.8
20260506165705 58 158 0.0 0.9 0.00 0.00 0.00 83 1019.7
20260506164705 58 163 0.0 0.9 0.00 0.00 0.00 83 1019.7
20260506163705 57 163 0.0 0.0 0.00 0.00 0.00 84 1019.6
20260506162705 57 163 0.0 0.0 0.00 0.00 0.00 84 1019.6
20260506161704 57 163 0.0 0.0 0.00 0.00 0.00 85 1019.6
20260506160706 56 140 0.0 0.0 0.00 0.00 0.00 85 1019.6
20260506155706 56 142 0.0 0.0 0.00 0.00 0.00 86 1019.6
20260506154705 56 142 0.0 0.9 0.00 0.00 0.00 86 1019.7
20260506153705 56 142 0.0 0.0 0.00 0.00 0.00 87 1019.6
20260506152704 55 142 0.0 0.0 0.00 0.00 0.00 86 1019.5
20260506151704 55 142 0.0 0.0 0.00 0.00 0.00 86 1019.6
20260506150705 54 142 0.0 0.0 0.00 0.00 0.00 88 1019.5
20260506145705 54 142 0.0 0.0 0.00 0.00 0.00 88 1019.5
20260506144705 53 142 0.0 0.0 0.00 0.00 0.00 89 1019.5
20260506143705 53 142 0.0 0.0 0.00 0.00 0.00 89 1019.5
20260506142705 53 142 0.0 0.0 0.00 0.00 0.00 89 1019.5
20260506141705 53 142 0.0 0.0 0.00 0.00 0.00 89 1019.4
20260506140705 52 142 0.0 0.0 0.00 0.00 0.00 89 1019.3
20260506135705 52 142 0.0 0.0 0.00 0.00 0.00 89 1019.2
20260506134705 52 142 0.0 0.0 0.00 0.00 0.00 89 1019.1
20260506133705 52 142 0.0 0.0 0.00 0.00 0.00 89 1019.1
20260506132706 52 160 0.0 0.0 0.00 0.00 0.00 89 1019.1
20260506131705 52 160 0.0 0.0 0.00 0.00 0.00 89 1018.9
20260506130705 52 160 0.0 0.0 0.00 0.00 0.00 89 1018.9
20260506125705 52 160 0.0 0.0 0.00 0.00 0.00 89 1018.9
20260506124706 52 160 0.0 0.0 0.00 0.00 0.00 89 1018.8
20260506123705 52 160 0.0 0.0 0.00 0.00 0.00 89 1018.8
20260506122705 52 160 0.0 0.0 0.00 0.00 0.00 89 1018.7
20260506120705 52 160 0.0 0.0 0.00 0.00 0.00 89 1018.6
20260506115705 52 160 0.0 0.0 0.00 0.00 0.00 89 1018.5
20260506114705 52 160 0.0 0.0 0.00 0.00 0.00 89 1018.6
20260506113705 52 160 0.0 0.0 0.00 0.00 0.00 89 1018.5
20260506112705 52 160 0.0 0.0 0.00 0.00 0.00 89 1018.5
20260506111705 52 160 0.0 0.0 0.00 0.00 0.00 90 1018.4
20260506110705 52 160 0.0 0.0 0.00 0.00 0.00 90 1018.3
20260506105705 52 160 0.0 0.0 0.00 0.00 0.00 90 1018.3
20260506104705 52 160 0.0 0.0 0.00 0.00 0.00 90 1018.2
20260506103705 52 160 0.0 0.0 0.00 0.00 0.00 90 1018.1
20260506102705 52 160 0.0 0.0 0.00 0.00 0.00 90 1018.0
20260506101705 53 160 0.0 0.0 0.00 0.00 0.00 90 1018.0
20260506100705 53 160 0.0 0.0 0.00 0.00 0.00 90 1018.0
20260506095706 53 160 0.0 0.0 0.00 0.00 0.00 90 1018.0
20260506094705 53 160 0.0 0.0 0.00 0.00 0.00 90 1017.9
20260506093706 53 160 0.0 0.0 0.00 0.00 0.00 90 1017.9
20260506092705 53 160 0.0 0.0 0.00 0.00 0.00 90 1017.9
20260506091705 53 160 0.0 0.0 0.00 0.00 0.00 89 1018.0
20260506090705 53 160 0.0 0.0 0.00 0.00 0.00 89 1018.0
20260506085705 53 160 0.0 0.0 0.00 0.00 0.00 89 1018.0
20260506084705 53 160 0.0 0.0 0.00 0.00 0.00 89 1018.0
20260506083705 53 160 0.0 0.0 0.00 0.00 0.00 88 1018.0
20260506082705 53 160 0.0 0.0 0.00 0.00 0.00 88 1018.0
20260506081705 53 160 0.0 0.0 0.00 0.00 0.00 88 1018.0
20260506080705 53 160 0.0 0.0 0.00 0.00 0.00 88 1017.9
20260506072705 54 160 0.0 0.0 0.00 0.00 0.00 87 1017.8
20260506071705 54 160 0.0 0.0 0.00 0.00 0.00 87 1017.7
20260506070706 54 160 0.0 0.0 0.00 0.00 0.00 86 1017.6
20260506061705 54 201 0.0 1.7 0.00 0.00 0.05 85 1017.2
20260506060706 55 180 0.0 0.9 0.00 0.00 0.05 85 1017.2
20260506050705 55 138 0.0 0.9 0.00 0.00 0.05 84 1016.5
20260506044706 55 132 0.0 0.0 0.00 0.00 0.05 83 1016.5
20260506043705 55 132 0.0 0.0 0.00 0.00 0.05 83 1016.4
20260506042705 55 132 0.0 0.0 0.00 0.00 0.05 83 1016.3
20260506041705 56 132 0.0 0.0 0.00 0.00 0.05 84 1016.1
20260506040707 56 134 0.0 0.9 0.00 0.00 0.05 83 1015.8
20260506035706 56 103 0.0 0.0 0.00 0.00 0.05 83 1015.7
20260506034705 56 129 0.0 0.0 0.00 0.00 0.05 82 1015.9
20260506033705 56 129 0.0 0.0 0.00 0.00 0.05 82 1015.9
20260506032706 56 129 0.0 0.0 0.00 0.00 0.05 82 1015.7
20260506031706 56 129 0.0 0.0 0.00 0.00 0.05 82 1015.6
20260506030706 56 129 0.0 0.0 0.00 0.00 0.05 81 1015.4
20260506025705 56 128 0.0 0.9 0.00 0.00 0.05 81 1015.2
20260506024705 57 145 0.0 0.0 0.00 0.00 0.05 80 1015.1
20260506023706 57 198 0.0 0.0 0.00 0.00 0.05 80 1015.1
20260506022705 57 118 0.0 0.9 0.00 0.00 0.05 80 1015.0
20260506021705 57 164 0.0 2.6 0.00 0.00 0.05 79 1014.9
20260506020706 57 181 0.0 2.6 0.00 0.00 0.05 79 1014.6
20260506015705 58 185 0.0 0.9 0.00 0.00 0.05 79 1014.8
20260506014705 58 131 0.0 0.0 0.00 0.00 0.05 80 1014.9
20260506013705 58 131 0.0 1.7 0.00 0.00 0.05 79 1014.9
20260506012705 58 128 0.0 1.7 0.00 0.00 0.05 78 1014.9
20260506011705 58 121 0.0 0.0 0.00 0.00 0.05 79 1014.8
20260506010707 58 130 0.0 0.9 0.00 0.00 0.05 78 1014.8
20260506005706 58 128 0.0 1.7 0.00 0.00 0.05 78 1014.7
20260506004706 58 191 0.0 4.3 0.00 0.00 0.05 78 1014.6
20260506003705 58 29 0.0 1.7 0.00 0.00 0.05 78 1014.6
20260506002706 58 146 0.0 0.0 0.00 0.00 0.05 78 1014.5
20260506001706 58 128 0.0 0.0 0.00 0.00 0.05 77 1014.6
20260506000705 58 143 0.0 0.9 0.00 0.00 0.05 76 1014.5
20260505235705 58 167 0.0 0.9 0.00 0.00 0.05 76 1014.5
20260505234705 58 67 0.0 0.9 0.00 0.00 0.05 76 1014.5
20260505233706 58 105 0.0 0.9 0.00 0.00 0.05 76 1014.4
20260505232705 58 103 0.0 0.0 0.00 0.00 0.05 76 1014.4
20260505231705 58 143 0.0 0.9 0.00 0.00 0.05 77 1014.5
20260505230705 58 118 0.0 0.0 0.00 0.00 0.05 78 1014.5
20260505225706 58 118 0.0 0.0 0.00 0.00 0.05 77 1014.5
20260505224705 58 224 0.0 0.0 0.00 0.00 0.05 77 1014.5
20260505223705 58 142 0.0 0.0 0.00 0.00 0.05 77 1014.6
20260505222705 58 178 0.0 1.7 0.00 0.00 0.05 77 1014.6
20260505221706 58 148 0.0 1.7 0.00 0.00 0.05 77 1014.8
20260505220705 58 180 0.0 0.0 0.00 0.00 0.05 77 1014.7
20260505215706 59 179 0.0 0.0 0.00 0.00 0.05 76 1014.9
20260505214705 59 167 0.0 0.0 0.00 0.00 0.05 75 1014.9
20260505213705 59 111 0.0 0.0 0.00 0.00 0.05 75 1014.9
20260505212705 60 192 0.0 0.0 0.00 0.00 0.05 75 1015.0
20260505211705 59 157 0.0 0.0 0.00 0.00 0.05 76 1015.0
20260505210705 58 138 0.0 0.0 0.00 0.00 0.05 77 1014.9
20260505205705 58 150 0.0 0.0 0.00 0.00 0.05 80 1014.9
20260505204706 57 188 0.0 0.0 0.00 0.00 0.05 80 1014.9
20260505203705 57 159 0.0 1.7 0.00 0.00 0.05 81 1014.9
20260505202706 57 178 0.0 0.9 0.00 0.00 0.05 82 1014.9
20260505201706 56 126 0.0 0.0 0.00 0.00 0.05 83 1014.9
20260505200705 55 155 0.0 0.0 0.00 0.00 0.05 82 1015.0
20260505195705 55 155 0.0 0.9 0.00 0.00 0.05 83 1015.1
20260505194707 55 173 0.0 1.7 0.00 0.00 0.05 83 1015.1
20260505193706 55 160 0.0 1.7 0.00 0.00 0.05 83 1015.1